Previsão horária em Abadeh

Hoje, 26 Janeiro, Terça-feira

Tempo Temperatura Precipitação Vento Pressão Humidade
00:00 +2°C° 0 mm 1 m/s 587 mmHg 33%
01:00 +2°C° 0 mm 1 m/s 587 mmHg 33%
02:00 +2°C° 0 mm 1 m/s 587 mmHg 32%
03:00 +1°C° 0 mm 1 m/s 586 mmHg 32%
04:00 +1°C° 0 mm 1 m/s 586 mmHg 32%
05:00 +1°C° 0 mm 1 m/s 586 mmHg 32%
06:00 0°C° 0 mm 1 m/s 586 mmHg 32%
07:00 -1°C° 0 mm 0 m/s 586 mmHg 31%
08:00 +1°C° 0 mm 0 m/s 587 mmHg 27%
09:00 +3°C° 0 mm 0 m/s 589 mmHg 23%
10:00 +5°C° 0 mm 0 m/s 590 mmHg 18%
11:00 +6°C° 0 mm 0 m/s 590 mmHg 17%
12:00 +7°C° 0 mm 0 m/s 590 mmHg 15%
13:00 +9°C° 0 mm 1 m/s 590 mmHg 14%
14:00 +10°C° 0 mm 1 m/s 590 mmHg 13%
15:00 +9°C° 0 mm 2 m/s 590 mmHg 13%
16:00 +9°C° 0 mm 2 m/s 590 mmHg 13%
17:00 +8°C° 0 mm 2 m/s 589 mmHg 18%
18:00 +7°C° 0 mm 1 m/s 589 mmHg 23%
19:00 +5°C° 0 mm 1 m/s 589 mmHg 28%
20:00 +5°C° 0 mm 1 m/s 588 mmHg 31%
21:00 +3°C° 0 mm 0 m/s 588 mmHg 33%
22:00 +2°C° 0 mm 0 m/s 588 mmHg 35%
23:00 +2°C° 0 mm 0 m/s 588 mmHg 37%

Amanhã, 27 Janeiro, Quarta-feira

Tempo Temperatura Precipitação Vento Pressão Humidade
00:00 +1°C° 0 mm 0 m/s 588 mmHg 40%
01:00 +2°C° 0 mm 1 m/s 587 mmHg 42%
02:00 +2°C° 0 mm 1 m/s 587 mmHg 43%
03:00 +1°C° 0 mm 1 m/s 587 mmHg 45%
04:00 +1°C° 0 mm 1 m/s 587 mmHg 47%
05:00 0°C° 0 mm 0 m/s 587 mmHg 46%
06:00 -1°C° 0 mm 0 m/s 587 mmHg 46%
07:00 -1°C° 0 mm 0 m/s 587 mmHg 46%
08:00 +1°C° 0 mm 0 m/s 588 mmHg 39%
09:00 +3°C° 0 mm 0 m/s 590 mmHg 32%
10:00 +5°C° 0 mm 0 m/s 591 mmHg 25%
11:00 +8°C° 0 mm 1 m/s 591 mmHg 22%
12:00 +9°C° 0 mm 1 m/s 591 mmHg 19%
13:00 +10°C° 0 mm 1 m/s 591 mmHg 16%
14:00 +10°C° 0 mm 1 m/s 591 mmHg 15%
15:00 +11°C° 0 mm 1 m/s 591 mmHg 15%
16:00 +10°C° 0 mm 2 m/s 591 mmHg 15%
17:00 +10°C° 0 mm 1 m/s 590 mmHg 19%
18:00 +8°C° 0 mm 1 m/s 590 mmHg 23%
19:00 +7°C° 0 mm 1 m/s 589 mmHg 27%
20:00 +6°C° 0 mm 1 m/s 589 mmHg 28%
21:00 +6°C° 0 mm 1 m/s 589 mmHg 28%
22:00 +5°C° 0 mm 1 m/s 589 mmHg 29%
23:00 +5°C° 0 mm 1 m/s 589 mmHg 29%

Depois de amanhã, 28 Janeiro, Quinta-feira

Tempo Temperatura Precipitação Vento Pressão Humidade
00:00 +4°C° 0 mm 1 m/s 588 mmHg 30%
01:00 +4°C° 0 mm 1 m/s 588 mmHg 30%
02:00 +4°C° 0 mm 1 m/s 588 mmHg 30%
03:00 +4°C° 0 mm 1 m/s 588 mmHg 31%
04:00 +4°C° 0 mm 1 m/s 587 mmHg 31%
05:00 +3°C° 0 mm 1 m/s 587 mmHg 31%
06:00 +3°C° 0 mm 1 m/s 587 mmHg 31%
07:00 +3°C° 0 mm 1 m/s 587 mmHg 31%
08:00 +5°C° 0 mm 1 m/s 589 mmHg 27%
09:00 +7°C° 0 mm 1 m/s 590 mmHg 24%
10:00 +8°C° 0 mm 1 m/s 591 mmHg 20%
11:00 +9°C° 0 mm 2 m/s 591 mmHg 17%
12:00 +10°C° 0 mm 2 m/s 591 mmHg 15%
13:00 +13°C° 0 mm 2 m/s 592 mmHg 12%
14:00 +12°C° 0 mm 3 m/s 591 mmHg 12%
15:00 +12°C° 0 mm 3 m/s 591 mmHg 11%
16:00 +13°C° 0 mm 3 m/s 591 mmHg 11%
17:00 +11°C° 0 mm 3 m/s 590 mmHg 15%
18:00 +9°C° 0 mm 2 m/s 590 mmHg 19%
19:00 +9°C° 0 mm 1 m/s 589 mmHg 23%
20:00 +8°C° 0 mm 1 m/s 589 mmHg 24%
21:00 +7°C° 0 mm 2 m/s 589 mmHg 24%
22:00 +6°C° 0 mm 2 m/s 589 mmHg 25%
23:00 +6°C° 0 mm 2 m/s 589 mmHg 26%

29 Janeiro, Sexta-feira

Tempo Temperatura Precipitação Vento Pressão Humidade
00:00 +6°C° 0 mm 2 m/s 589 mmHg 27%
01:00 +5°C° 0 mm 2 m/s 589 mmHg 28%
02:00 +5°C° 0 mm 2 m/s 588 mmHg 30%
03:00 +5°C° 0 mm 2 m/s 588 mmHg 31%
04:00 +4°C° 0 mm 3 m/s 588 mmHg 32%
05:00 +4°C° 0 mm 2 m/s 588 mmHg 34%
06:00 +4°C° 0 mm 2 m/s 588 mmHg 35%
07:00 +4°C° 0 mm 2 m/s 588 mmHg 36%
08:00 +4°C° 0 mm 3 m/s 589 mmHg 33%
09:00 +7°C° 0 mm 3 m/s 590 mmHg 30%
10:00 +9°C° 0 mm 3 m/s 591 mmHg 27%
11:00 +9°C° 0 mm 5 m/s 591 mmHg 27%
12:00 +11°C° 0 mm 6 m/s 591 mmHg 26%
13:00 +12°C° 0 mm 8 m/s 591 mmHg 26%
14:00 +12°C° 0 mm 9 m/s 590 mmHg 27%
15:00 +12°C° 0 mm 10 m/s 590 mmHg 28%
16:00 +12°C° 0 mm 11 m/s 589 mmHg 30%
17:00 +11°C° 0 mm 10 m/s 589 mmHg 33%
18:00 +10°C° 0 mm 9 m/s 588 mmHg 36%
19:00 +7°C° 0 mm 8 m/s 588 mmHg 39%
20:00 +7°C° 0 mm 9 m/s 588 mmHg 41%
21:00 +6°C° 0 mm 9 m/s 588 mmHg 42%
22:00 +6°C° 0 mm 9 m/s 588 mmHg 43%
23:00 +5°C° 0 mm 10 m/s 588 mmHg 43%

30 Janeiro, Sábado

Tempo Temperatura Precipitação Vento Pressão Humidade
00:00 +4°C° 0 mm 11 m/s 587 mmHg 42%
01:00 +4°C° 0 mm 12 m/s 587 mmHg 42%
02:00 +3°C° 0 mm 12 m/s 587 mmHg 47%
03:00 +3°C° 0 mm 11 m/s 586 mmHg 52%
04:00 +2°C° 0 mm 10 m/s 586 mmHg 57%
05:00 +2°C° 0 mm 11 m/s 586 mmHg 62%
06:00 0°C° 0 mm 12 m/s 586 mmHg 67%
07:00 0°C° 0 mm 12 m/s 585 mmHg 72%
08:00 0°C° 0.1 mm 12 m/s 586 mmHg 68%
09:00 +2°C° 0.1 mm 12 m/s 587 mmHg 64%
10:00 +3°C° 0.1 mm 12 m/s 587 mmHg 61%
11:00 +4°C° 0.1 mm 12 m/s 587 mmHg 58%
12:00 +5°C° 0.1 mm 13 m/s 587 mmHg 54%
13:00 +5°C° 0.1 mm 14 m/s 587 mmHg 51%
14:00 +5°C° 0.3 mm 12 m/s 586 mmHg 56%
15:00 +4°C° 0.3 mm 11 m/s 586 mmHg 61%
16:00 +3°C° 0.3 mm 9 m/s 585 mmHg 65%
17:00 +3°C° 0.3 mm 9 m/s 585 mmHg 66%
18:00 +2°C° 0.3 mm 10 m/s 585 mmHg 66%
19:00 +1°C° 0.3 mm 10 m/s 585 mmHg 66%
20:00 +1°C° 0 mm 11 m/s 585 mmHg 63%
21:00 -1°C° 0 mm 11 m/s 585 mmHg 59%
22:00 -2°C° 0 mm 12 m/s 585 mmHg 55%
23:00 -2°C° 0 mm 11 m/s 585 mmHg 51%

31 Janeiro, Domingo

Tempo Temperatura Precipitação Vento Pressão Humidade
00:00 -1°C° 0 mm 9 m/s 585 mmHg 47%
01:00 -2°C° 0 mm 8 m/s 585 mmHg 42%
02:00 -3°C° 0 mm 7 m/s 585 mmHg 48%
03:00 -4°C° 0 mm 5 m/s 585 mmHg 54%
04:00 -2°C° 0 mm 3 m/s 585 mmHg 60%
05:00 -4°C° 0 mm 3 m/s 585 mmHg 60%
06:00 -4°C° 0 mm 3 m/s 585 mmHg 61%
07:00 -4°C° 0 mm 3 m/s 585 mmHg 62%
08:00 -2°C° 0 mm 3 m/s 586 mmHg 53%
09:00 +1°C° 0 mm 2 m/s 587 mmHg 44%
10:00 +2°C° 0 mm 2 m/s 588 mmHg 35%
11:00 +4°C° 0 mm 2 m/s 588 mmHg 30%
12:00 +5°C° 0 mm 2 m/s 588 mmHg 25%
13:00 +7°C° 0 mm 2 m/s 589 mmHg 19%
14:00 +8°C° 0 mm 3 m/s 589 mmHg 19%
15:00 +8°C° 0 mm 3 m/s 589 mmHg 18%
16:00 +8°C° 0 mm 4 m/s 589 mmHg 17%
17:00 +7°C° 0 mm 3 m/s 589 mmHg 22%
18:00 +5°C° 0 mm 3 m/s 588 mmHg 27%
19:00 +4°C° 0 mm 2 m/s 588 mmHg 32%
20:00 +4°C° 0 mm 2 m/s 588 mmHg 32%
21:00 +3°C° 0 mm 2 m/s 588 mmHg 32%
22:00 +3°C° 0 mm 2 m/s 588 mmHg 32%
23:00 +2°C° 0 mm 2 m/s 588 mmHg 31%
Mostrar mais